Tracking 19247 objects as of 22-Sep-2018
HD Live streaming from Space Station
objects crossing your sky now

SAKURA 2A (CS-2A)

Track SAKURA 2A (CS-2A) now!
SAKURA 2A (CS-2A) is classified as:


NORAD ID: 13782
Int'l Code: 1983-006A
Perigee: 35,984.6 km
Apogee: 36,089.3 km
Inclination: 14.5 °
Period: 1,448.5 minutes
Semi major axis: 42407 km
RCS: 5.8102 m2 (large)
Launch date: February 4, 1983
Source: Japan (JPN)
Launch site: TANEGASHIMA SPACE CENTER (TNSTA)
aabbcc
Your satellite tracking list
Your tracking list is empty




NASA's NSSDC Master Catalog

Two Line Element Set (TLE):
1 13782U 83006A   18263.55550434 -.00000315 +00000-0 +00000-0 0  9999
2 13782 014.4608 344.1650 0012346 264.5903 100.6576 00.99410389099752
Source of the keplerian elements: AFSPC